This is the latest recevied weather packets stored in our database for station/object DJ2DS-13. If no packets are shown the sender has not sent any weather packets the latest 10 day(s).
| Time | Temp. | Humidity | Pressure | Rain* | Wind** | Luminosity | Snow |
|---|---|---|---|---|---|---|---|
| 1778064461 | 13.33° C | 67% | 1008.3 hPa | 0 mm | - | 448 W/m² | - |
| 1778064162 | 13.33° C | 68% | 1008.3 hPa | 0 mm | - | 420 W/m² | - |
| 1778063861 | 13.33° C | 68% | 1008.3 hPa | 0 mm | - | 399 W/m² | - |
| 1778063562 | 13.33° C | 68% | 1008.2 hPa | 0 mm | - | 394 W/m² | - |
| 1778063260 | 13.33° C | 68% | 1008.3 hPa | 0 mm | - | 387 W/m² | - |
| 1778062960 | 13.33° C | 67% | 1008.2 hPa | 0 mm | - | 399 W/m² | - |
| 1778062660 | 13.33° C | 65% | 1008.2 hPa | 0 mm | - | 397 W/m² | - |
| 1778062360 | 13.33° C | 68% | 1008.2 hPa | 0 mm | - | 394 W/m² | - |
| 1778062061 | 13.33° C | 67% | 1008.1 hPa | 0 mm | - | 380 W/m² | - |
| 1778061760 | 13.33° C | 67% | 1008.2 hPa | 0 mm | - | 368 W/m² | - |
| 1778061460 | 12.78° C | 67% | 1008.1 hPa | 0 mm | - | 371 W/m² | - |
| 1778061160 | 12.78° C | 68% | 1008.1 hPa | 0 mm | - | 373 W/m² | - |
| 1778060859 | 12.78° C | 67% | 1008.2 hPa | 0 mm | - | 366 W/m² | - |
| 1778060560 | 12.78° C | 68% | 1008.1 hPa | 0 mm | - | 352 W/m² | - |
| 1778060260 | 12.78° C | 67% | 1008.1 hPa | 0 mm | - | 350 W/m² | - |
| 1778059961 | 12.22° C | 68% | 1008 hPa | 0 mm | - | 353 W/m² | - |
| 1778059661 | 12.22° C | 69% | 1008.1 hPa | 0 mm | - | 350 W/m² | - |
| 1778059361 | 12.22° C | 70% | 1008.1 hPa | 0 mm | - | 329 W/m² | - |
| 1778059061 | 12.22° C | 72% | 1008.1 hPa | 0 mm | - | 322 W/m² | - |
| 1778058761 | 12.22° C | 70% | 1008 hPa | 0 mm | - | 306 W/m² | - |
| 1778058460 | 12.22° C | 70% | 1008 hPa | 0 mm | - | 308 W/m² | - |
| 1778058160 | 12.22° C | 72% | 1008.1 hPa | 0 mm | - | 315 W/m² | - |
| 1778057860 | 11.67° C | 70% | 1008.1 hPa | 0 mm | - | 324 W/m² | - |
| 1778057561 | 11.67° C | 70% | 1008.1 hPa | 0 mm | - | 304 W/m² | - |
| 1778057260 | 11.67° C | 71% | 1008.1 hPa | 0 mm | - | 294 W/m² | - |
* Rain latest hour (hover to see other rain measurements)
** Current wind speed in m/s (hover to see current wind gust speed)